time_stamp(utc),avg(mph),gust(mph),direction(deg),12m_air_temp(f),sonic_u(cm/s),sonic_v(cm/s),sonic_w(cm/s),pressure,2m_air_temp(f),pyranometer(W/m^2)
"2019-01-28 00:02:07+00",13.6,14.6,,40.7,-470,-351,10,1013.82,39.8,0
"2019-01-28 00:07:07+00",11.9,13.9,,40.6,-426,-298,15,1013.89,39.8,0
"2019-01-28 00:12:07+00",12.8,14.8,,40.7,-407,-411,10,1013.85,39.8,0
"2019-01-28 00:17:07+00",13.4,15.4,,40.6,-412,-444,7,1014.01,39.8,0
"2019-01-28 00:22:07+00",12.5,14.5,,40.6,-410,-363,13,1014.09,39.8,0
"2019-01-28 00:27:07+00",13.0,15.0,,40.5,-436,-358,8,1014.21,39.7,0
"2019-01-28 00:32:07+00",12.0,14.0,,40.5,-381,-385,8,1014.21,39.7,0
"2019-01-28 00:37:07+00",12.1,13.1,,40.5,-380,-388,10,1014.24,39.7,0
"2019-01-28 00:42:07+00",11.4,12.4,,40.4,-365,-349,9,1014.24,39.7,0
"2019-01-28 00:47:07+00",12.1,14.1,,40.4,-382,-366,1,1014.27,39.6,0
"2019-01-28 00:52:07+00",12.6,14.6,,40.4,-408,-363,-6,1014.2,39.6,0
"2019-01-28 00:57:07+00",12.0,13.0,,40.3,-394,-351,6,1014.27,39.5,0
"2019-01-28 01:02:07+00",12.5,13.5,,40.3,-424,-331,9,1014.38,39.4,0
"2019-01-28 01:07:07+00",12.0,13.0,,40.2,-398,-325,11,1014.45,39.4,0
"2019-01-28 01:12:07+00",10.4,13.4,,40.1,-344,-291,15,1014.31,39.3,0
"2019-01-28 01:17:07+00",11.6,12.6,,40.2,-374,-331,-1,1014.24,39.2,0
"2019-01-28 01:22:07+00",11.1,12.1,,40.2,-365,-310,10,1014.38,39.2,0
"2019-01-28 01:27:07+00",10.3,11.3,,40.1,-348,-278,10,1014.33,39.2,0
"2019-01-28 01:32:07+00",9.7,10.7,,40,-321,-266,12,1014.22,39.1,0
"2019-01-28 01:37:07+00",10.1,11.1,,39.9,-319,-319,-3,1014.27,39,0
"2019-01-28 01:42:07+00",9.9,10.9,,40,-312,-308,2,1014.24,38.9,0
"2019-01-28 01:47:07+00",10.5,11.5,,40.1,-314,-358,-2,1014.18,38.9,0
"2019-01-28 01:52:07+00",10.7,11.7,,40.2,-322,-363,-6,1014.13,39,0
"2019-01-28 01:57:07+00",11.0,12.0,,40.2,-339,-359,-2,1014.17,39,0
"2019-01-28 02:02:07+00",11.2,12.2,,40.2,-358,-341,1,1014.18,39.1,0
"2019-01-28 02:07:07+00",11.8,13.8,,40.2,-382,-357,8,1014.17,39.1,0
"2019-01-28 02:12:07+00",11.2,13.2,,40.3,-360,-334,10,1014.04,39.2,0
"2019-01-28 02:17:07+00",10.8,12.8,,40.2,-363,-290,7,1014.09,39.3,0
"2019-01-28 02:22:07+00",11.9,12.9,,40.2,-392,-329,5,1014.08,39.2,0
"2019-01-28 02:27:07+00",11.8,13.8,,40,-396,-316,4,1014.23,39.1,0
"2019-01-28 02:32:07+00",10.8,12.8,,39.9,-357,-297,11,1014.01,39,0
"2019-01-28 02:37:07+00",10.4,11.4,,39.7,-350,-284,10,1013.93,38.9,0
"2019-01-28 02:42:07+00",10.0,11.0,,39.6,-343,-267,7,1013.91,38.8,0
"2019-01-28 02:47:07+00",9.7,10.7,,39.4,-340,-240,10,1013.92,38.6,0
"2019-01-28 02:52:07+00",8.6,10.6,,39.3,-327,-204,6,1013.71,38.4,0
"2019-01-28 02:57:07+00",8.3,10.3,,39.2,-341,-174,2,1013.74,38.3,0
"2019-01-28 03:02:07+00",8.2,9.2,,39.1,-362,-161,8,1013.69,38.1,0
"2019-01-28 03:07:07+00",8.3,9.3,,38.9,-357,-170,6,1013.73,38,0
"2019-01-28 03:12:07+00",7.1,7.1,,38.8,-301,-124,10,1013.73,37.8,0
"2019-01-28 03:17:07+00",6.8,7.8,,38.6,-299,-122,6,1013.7,37.6,0
"2019-01-28 03:22:07+00",6.8,7.8,,38.6,-296,-116,7,1013.66,37.4,0
"2019-01-28 03:27:07+00",6.8,7.8,,38.6,-292,-108,10,1013.59,37.3,0
"2019-01-28 03:32:07+00",6.4,7.4,,38.4,-275,-18,7,1013.64,37.1,0
"2019-01-28 03:37:07+00",5.6,6.6,,38.4,-242,4,14,1013.72,36.9,0
"2019-01-28 03:42:07+00",7.6,7.6,,38.5,-322,-49,7,1013.97,36.7,0
"2019-01-28 03:47:07+00",6.8,6.8,,38.5,-296,54,10,1013.81,36.6,0
"2019-01-28 03:52:07+00",7.4,8.4,,38.5,-302,135,22,1013.92,36.4,0
"2019-01-28 03:57:07+00",7.8,8.8,,38.9,-297,176,18,1013.94,36.3,0
"2019-01-28 04:02:07+00",7.3,8.3,,38.5,-243,207,14,1014.05,36.3,0
"2019-01-28 04:07:07+00",7.2,8.2,,38.3,-267,169,11,1014.04,36.4,0
"2019-01-28 04:12:07+00",7.4,8.4,,38.3,-274,175,13,1014.1,36.5,0
"2019-01-28 04:17:07+00",7.5,8.5,,38.3,-240,221,19,1014.11,36.7,0
"2019-01-28 04:22:07+00",6.9,7.9,,38.5,-236,185,15,1014.09,36.8,0
"2019-01-28 04:27:07+00",6.6,7.6,,38.6,-226,181,17,1014.08,36.8,0
"2019-01-28 04:32:07+00",7.3,8.3,,38.6,-248,199,15,1014.15,36.9,0
"2019-01-28 04:37:07+00",7.9,8.9,,38.7,-290,187,19,1014.16,37,0
"2019-01-28 04:42:07+00",9.8,10.8,,38.6,-330,278,24,1014.28,37.1,0
"2019-01-28 04:47:07+00",10.9,11.9,,38.6,-327,353,28,1014.27,37.3,0
"2019-01-28 04:52:07+00",11.0,13.0,,38.6,-400,302,23,1014.31,37.5,0
"2019-01-28 04:57:07+00",11.6,12.6,,38.7,-419,290,33,1014.55,37.6,0
"2019-01-28 05:02:07+00",13.4,14.4,,38.9,-466,372,39,1014.63,37.8,0
"2019-01-28 05:07:07+00",12.1,13.1,,38.8,-389,382,44,1014.77,37.9,0
"2019-01-28 05:12:07+00",11.1,13.1,,38.7,-262,409,31,1014.81,37.9,0
"2019-01-28 05:17:07+00",11.9,12.9,,38.6,-235,457,30,1014.77,37.8,0
"2019-01-28 05:22:07+00",13.2,15.2,,38.5,-265,524,33,1014.79,37.7,0
"2019-01-28 05:27:07+00",13.1,14.1,,38.4,-256,516,39,1014.82,37.6,0
"2019-01-28 05:32:07+00",13.4,15.4,,38.4,-267,532,22,1014.82,37.6,0
"2019-01-28 05:37:07+00",14.2,16.2,,38.4,-265,569,30,1014.7,37.5,0
"2019-01-28 05:42:07+00",12.9,14.9,,38.3,-271,515,21,1014.78,37.5,0
"2019-01-28 05:47:07+00",13.0,14.0,,38.2,-264,496,29,1014.74,37.4,0
"2019-01-28 05:52:07+00",12.2,15.2,,38.1,-236,485,33,1014.8,37.3,0
"2019-01-28 05:57:07+00",11.9,13.9,,37.9,-234,477,34,1014.76,37.2,0
"2019-01-28 06:02:07+00",13.4,14.4,,37.9,-253,544,32,1014.7,37.1,0
"2019-01-28 06:07:07+00",10.8,11.8,,37.7,-158,453,29,1014.62,37,0
"2019-01-28 06:12:07+00",12.8,13.8,,37.8,-147,547,16,1014.74,36.9,0
"2019-01-28 06:17:07+00",12.8,13.8,,37.6,-121,547,12,1014.84,36.8,0
"2019-01-28 06:22:07+00",14.3,16.3,,37.6,-127,611,15,1014.77,36.7,0
"2019-01-28 06:27:07+00",12.5,15.5,,37.5,-99,540,21,1014.72,36.7,0
"2019-01-28 06:32:07+00",13.6,15.6,,37.4,-187,568,22,1014.74,36.6,0
"2019-01-28 06:37:07+00",12.9,14.9,,37.2,-181,540,32,1014.58,36.5,0
"2019-01-28 06:42:07+00",13.3,16.3,,37.2,-162,557,33,1014.8,36.5,0
"2019-01-28 06:47:07+00",14.8,17.8,,37.1,-194,624,13,1014.85,36.4,0
"2019-01-28 06:52:07+00",13.8,15.8,,37.1,-165,583,22,1015.08,36.3,0
"2019-01-28 06:57:07+00",15.0,17.0,,37,-226,621,31,1015.11,36.3,0
"2019-01-28 07:02:07+00",14.6,17.6,,36.9,-172,609,23,1015.1,36.2,0
"2019-01-28 07:07:07+00",14.3,16.3,,36.7,-137,609,27,1015.01,36.1,0
"2019-01-28 07:12:07+00",17.2,18.2,,36.7,-142,742,16,1014.88,36,0
"2019-01-28 07:17:07+00",14.9,17.9,,36.4,-174,632,11,1014.82,35.8,0
"2019-01-28 07:22:07+00",14.6,16.6,,36.3,-260,594,31,1015.04,35.7,0
"2019-01-28 07:27:07+00",15.5,17.5,,36.3,-230,640,26,1015.08,35.6,0
"2019-01-28 07:32:07+00",17.7,20.7,,36.3,-290,726,24,1015.23,35.7,0
"2019-01-28 07:37:07+00",14.3,16.3,,36.2,-290,566,45,1015.62,35.7,0
"2019-01-28 07:42:07+00",16.0,18.0,,36.1,-228,660,41,1015.49,35.6,0
"2019-01-28 07:47:07+00",17.0,18.0,,36,-266,697,30,1015.44,35.5,0
"2019-01-28 07:52:07+00",14.9,15.9,,35.8,-255,605,35,1015.53,35.3,0
"2019-01-28 07:57:07+00",16.1,18.1,,35.6,-260,669,43,1015.53,35.2,0
"2019-01-28 08:02:07+00",14.1,15.1,,35.6,-202,585,26,1015.44,35.1,0
"2019-01-28 08:07:07+00",14.1,16.1,,35.3,-152,599,18,1015.24,34.9,0
"2019-01-28 08:12:07+00",13.3,16.3,,35.3,-163,560,37,1015.18,34.7,0
"2019-01-28 08:17:07+00",14.6,16.6,,35.3,-165,622,19,1015.11,34.7,0
"2019-01-28 08:22:07+00",16.0,18.0,,35.1,-199,669,29,1015.04,34.6,0
"2019-01-28 08:27:07+00",17.9,20.9,,35.2,-245,747,31,1015.01,34.5,0
"2019-01-28 08:32:07+00",15.2,18.2,,34.9,-186,662,47,1014.68,34.4,0
"2019-01-28 08:37:07+00",16.5,19.5,,34.8,-226,693,41,1014.66,34.3,0
"2019-01-28 08:42:07+00",17.2,18.2,,34.6,-228,715,24,1014.74,34.1,0
"2019-01-28 08:47:07+00",15.5,18.5,,34.4,-199,643,48,1014.61,34,0
"2019-01-28 08:52:07+00",17.8,19.8,,34.4,-226,745,21,1014.8,33.8,0
"2019-01-28 08:57:07+00",13.5,15.5,,34.2,-189,554,28,1014.75,33.8,0
"2019-01-28 09:02:07+00",14.9,17.9,,34.1,-218,631,24,1014.53,33.7,0
"2019-01-28 09:07:07+00",16.0,19.0,,33.9,-310,630,37,1014.86,33.5,0
"2019-01-28 09:12:07+00",16.1,18.1,,33.8,-287,652,42,1014.84,33.3,0
"2019-01-28 09:17:07+00",16.0,19.0,,33.5,-251,655,28,1014.77,33.1,0
"2019-01-28 09:22:07+00",15.8,17.8,,33.4,-298,624,30,1014.79,32.9,0
"2019-01-28 09:27:07+00",17.3,21.3,,33.3,-282,712,44,1014.5,32.8,0
"2019-01-28 09:32:07+00",14.8,15.8,,33.1,-255,613,47,1014.67,32.6,0
"2019-01-28 09:37:07+00",19.8,23.8,,33.1,-376,784,29,1014.62,32.5,0
"2019-01-28 09:42:07+00",19.1,22.1,,33,-318,775,42,1014.69,32.4,0
"2019-01-28 09:47:07+00",16.6,20.6,,32.7,-232,686,20,1014.73,32.2,0
"2019-01-28 09:52:07+00",16.4,20.4,,32.6,-219,679,37,1014.6,32.1,0
"2019-01-28 09:57:07+00",14.7,16.7,,32.4,-153,619,18,1014.81,31.9,0
"2019-01-28 10:02:07+00",16.6,18.6,,32.2,-139,712,13,1014.78,31.6,0
"2019-01-28 10:07:07+00",14.4,19.4,,31.9,-27,638,21,1014.39,31.4,0
"2019-01-28 10:12:07+00",20.6,26.6,,31.9,-103,907,16,1014.38,31.2,0
"2019-01-28 10:17:07+00",14.7,17.7,,31.6,-88,653,21,1014.33,31.1,0
"2019-01-28 10:22:07+00",17.3,18.3,,31.6,-98,756,15,1014.52,30.9,0
"2019-01-28 10:27:07+00",16.2,19.2,,31.5,-154,694,16,1014.51,30.9,0
"2019-01-28 10:32:07+00",13.6,14.6,,31.3,-125,581,28,1014.64,30.7,0
"2019-01-28 10:37:07+00",14.1,15.1,,31.2,-22,615,24,1014.7,30.5,0
"2019-01-28 10:42:07+00",9.8,10.8,,30.9,-57,428,8,1014.79,30.3,0
"2019-01-28 10:47:07+00",14.0,16.0,,31,-47,610,16,1014.66,30.2,0
"2019-01-28 10:52:07+00",13.6,16.6,,30.7,63,585,2,1014.15,30,0
"2019-01-28 10:57:07+00",11.6,14.6,,30.5,32,503,8,1014.29,29.8,0
"2019-01-28 11:02:07+00",12.6,15.6,,30.6,49,543,4,1014.18,29.6,0
"2019-01-28 11:07:07+00",12.9,14.9,,30.4,47,547,4,1014.25,29.5,0
"2019-01-28 11:12:07+00",12.3,14.3,,30.2,16,538,12,1014.15,29.2,0
"2019-01-28 11:17:07+00",12.9,14.9,,30.1,3,564,7,1014.42,29,0
"2019-01-28 11:22:07+00",11.3,13.3,,30,5,490,16,1014.53,28.9,0
"2019-01-28 11:27:07+00",10.7,12.7,,29.8,-40,467,10,1015.04,28.7,0
"2019-01-28 11:32:07+00",10.8,13.8,,29.9,-85,465,18,1015.16,28.6,0
"2019-01-28 11:37:07+00",9.6,11.6,,29.8,-80,408,14,1015.41,28.7,0
"2019-01-28 11:42:07+00",9.0,10.0,,29.8,-109,379,25,1015.3,28.8,0
"2019-01-28 11:47:07+00",10.9,12.9,,29.7,-155,459,16,1015.41,28.9,0
"2019-01-28 11:52:07+00",10.4,12.4,,29.7,-109,439,15,1015.47,28.9,0
"2019-01-28 11:57:07+00",9.2,11.2,,29.6,-101,386,14,1015.63,28.9,0
"2019-01-28 12:02:07+00",12.1,14.1,,29.5,-206,481,34,1015.41,28.8,0
"2019-01-28 12:07:07+00",13.4,15.4,,29.4,-198,545,27,1015.65,28.8,0
"2019-01-28 12:12:07+00",12.4,14.4,,29.4,-178,509,24,1015.75,28.8,0
"2019-01-28 12:17:07+00",12.3,14.3,,29.4,-199,506,36,1015.77,28.8,0
"2019-01-28 12:22:07+00",10.1,12.1,,29.2,-98,417,27,1015.46,28.8,0
"2019-01-28 12:27:07+00",11.7,12.7,,29.1,-68,506,11,1015.2,28.7,0
"2019-01-28 12:32:07+00",11.2,13.2,,29,-118,470,1,1015.37,28.6,0
"2019-01-28 12:37:07+00",11.2,13.2,,29,-143,462,18,1015.42,28.6,0
"2019-01-28 12:42:07+00",11.5,14.5,,29,-149,484,15,1015.57,28.6,0
"2019-01-28 12:47:07+00",12.1,13.1,,29.1,-146,507,18,1015.65,28.6,0
"2019-01-28 12:52:07+00",11.0,12.0,,29.1,-187,443,17,1015.99,28.7,0.1
"2019-01-28 12:57:07+00",11.7,13.7,,29.1,-162,486,29,1016.35,28.7,0
"2019-01-28 13:02:07+00",10.8,12.8,,29.2,-124,452,28,1016.32,28.8,0
"2019-01-28 13:07:07+00",13.5,16.5,,29.1,-157,580,32,1016.05,28.8,2.4
"2019-01-28 13:12:07+00",15.3,18.3,,29.2,-156,654,22,1016.32,28.9,7.1
"2019-01-28 13:17:07+00",12.8,15.8,,29.2,-175,529,28,1016.39,29,8.5
"2019-01-28 13:22:07+00",15.2,17.2,,29.2,-177,644,12,1016.51,29,13.8
"2019-01-28 13:27:07+00",12.1,13.1,,29.2,-146,502,36,1016.52,29.1,6.8
"2019-01-28 13:32:07+00",13.9,15.9,,29.3,-163,592,30,1016.51,29.1,14.7
"2019-01-28 13:37:07+00",13.5,15.5,,29.3,-144,580,42,1016.59,29.3,19.9
"2019-01-28 13:42:07+00",16.6,18.6,,29.3,-90,724,9,1016.41,29.4,24.4
"2019-01-28 13:47:07+00",16.7,18.7,,29.4,-90,727,27,1016.99,29.4,22.6
"2019-01-28 13:52:07+00",14.2,17.2,,29.4,-76,627,16,1017.12,29.5,20.4
"2019-01-28 13:57:07+00",14.3,18.3,,29.4,-57,630,13,1017.13,29.5,26.4
"2019-01-28 14:02:07+00",14.1,18.1,,29.4,-20,613,19,1017.13,29.6,36.6
"2019-01-28 14:07:07+00",16.2,18.2,,29.5,-2,709,20,1017.26,29.8,68.6
"2019-01-28 14:12:07+00",14.0,16.0,,29.7,17,609,-5,1017.45,30.1,124.3
"2019-01-28 14:17:07+00",15.1,18.1,,30,59,654,11,1017.32,31,177.4
"2019-01-28 14:22:07+00",12.5,17.5,,30.2,84,494,47,1017.59,31.6,133.7
"2019-01-28 14:27:07+00",14.3,16.3,,29.9,80,624,22,1017.48,31.3,85.9
"2019-01-28 14:32:07+00",15.5,18.5,,29.9,117,653,8,1017.56,31.1,98.5
"2019-01-28 14:37:07+00",13.3,16.3,,30.1,17,587,35,1017.72,31.2,107.9
"2019-01-28 14:42:07+00",16.8,18.8,,30,103,720,9,1017.59,31.2,91.3
"2019-01-28 14:47:07+00",15.2,20.2,,30.3,42,667,23,1017.59,31.2,95.4
"2019-01-28 14:52:07+00",15.0,19.0,,30.5,107,638,14,1017.69,31.4,85.6
"2019-01-28 14:57:07+00",13.5,18.5,,30.6,160,550,26,1017.89,31.5,89.9
"2019-01-28 15:02:07+00",11.9,14.9,,30.7,112,486,44,1017.76,31.5,109.7
"2019-01-28 15:07:07+00",15.6,17.6,,30.7,77,673,25,1017.84,31.9,211.6
"2019-01-28 15:12:07+00",13.0,18.0,,31,193,504,28,1017.63,32.6,161.7
"2019-01-28 15:17:07+00",18.4,19.4,,30.7,191,765,-22,1017.57,32.4,152.5
"2019-01-28 15:22:07+00",15.0,18.0,,30.8,291,566,-4,1017.75,32.4,142.8
"2019-01-28 15:27:07+00",14.9,18.9,,30.8,195,603,1,1017.88,32.3,118.7
"2019-01-28 15:32:07+00",14.4,15.4,,30.7,360,486,-4,1017.96,32.1,140.6
"2019-01-28 15:37:07+00",13.0,16.0,,30.8,287,472,7,1018.09,32.4,141.9
"2019-01-28 15:42:07+00",16.4,19.4,,30.7,435,533,-2,1018.02,32.2,147.4
"2019-01-28 15:47:07+00",15.0,18.0,,30.7,478,427,6,1018,32.2,122.8
"2019-01-28 15:52:07+00",14.2,17.2,,30.5,476,384,39,1018,32.1,95.3
"2019-01-28 15:57:07+00",15.6,17.6,,30.3,546,410,38,1018.07,31.7,91.6
"2019-01-28 16:02:07+00",13.6,15.6,,30.6,352,452,24,1017.82,31.7,90.8
"2019-01-28 16:07:07+00",16.1,18.1,,30.3,480,475,2,1017.77,31.6,109.9
"2019-01-28 16:12:07+00",16.0,19.0,,30.3,454,472,-2,1017.68,31.7,146.4
"2019-01-28 16:17:07+00",16.4,18.4,,30.3,478,482,-7,1017.67,31.9,138.4
"2019-01-28 16:22:07+00",18.2,20.2,,30.6,518,539,-6,1017.67,32.3,179.7
"2019-01-28 16:27:07+00",16.8,19.8,,30.8,631,397,78,1017.44,32.5,211.6
"2019-01-28 16:32:07+00",18.9,20.9,,30.3,557,557,2,1017.52,32.7,264.7
"2019-01-28 16:37:07+00",17.5,19.5,,30.9,565,491,8,1017.59,33.3,243.6
"2019-01-28 16:42:07+00",19.1,22.1,,30.4,665,500,27,1017.64,32.8,196.6
"2019-01-28 16:47:07+00",19.4,21.4,,30.3,612,551,-3,1017.54,32.4,132.1
"2019-01-28 16:52:07+00",19.4,21.4,,30.1,566,564,-14,1017.46,31.8,113
"2019-01-28 16:57:07+00",18.3,21.3,,30,497,589,2,1017.25,31.4,105.4
"2019-01-28 17:02:07+00",17.8,20.8,,30.1,470,577,-2,1017.39,31.3,116.4
"2019-01-28 17:07:07+00",17.4,20.4,,30,454,561,6,1017.33,31.3,99.6
"2019-01-28 17:12:07+00",18.0,20.0,,30.1,436,644,4,1017.28,31.2,85.6
"2019-01-28 17:17:07+00",15.8,17.8,,30,557,407,19,1017.17,31.3,97.2
"2019-01-28 17:22:07+00",16.0,19.0,,30,527,433,22,1017.41,31.4,134.9
"2019-01-28 17:27:07+00",15.2,18.2,,30.1,392,519,18,1017.29,31.5,130
"2019-01-28 17:32:07+00",16.1,19.1,,30.4,421,538,8,1016.88,31.7,178.2
"2019-01-28 17:37:07+00",17.8,20.8,,30.1,414,644,-13,1016.92,31.8,147.5
"2019-01-28 17:42:07+00",16.9,20.9,,30.1,376,619,-7,1016.82,31.7,144
"2019-01-28 17:47:07+00",14.2,18.2,,30.3,367,469,13,1016.82,31.7,138.3
"2019-01-28 17:52:07+00",19.6,21.6,,29.9,673,523,11,1016.57,31.5,116.8
"2019-01-28 17:57:07+00",17.4,19.4,,29.6,432,614,14,1016.52,31.2,107.2
"2019-01-28 18:02:07+00",18.9,20.9,,29.6,601,531,6,1016.49,31,110.2
"2019-01-28 18:07:07+00",18.2,20.2,,29.7,611,498,38,1016.51,31,119.7
"2019-01-28 18:12:07+00",18.6,19.6,,29.9,594,532,7,1016.59,31.3,137.7
"2019-01-28 18:17:07+00",19.0,22.0,,29.6,605,542,17,1016.43,31.3,128.5
"2019-01-28 18:22:07+00",15.7,17.7,,29.9,463,483,35,1016.18,31.3,138.2
"2019-01-28 18:27:07+00",17.8,18.8,,29.7,645,452,30,1016.36,31.3,161.6
"2019-01-28 18:32:07+00",16.5,18.5,,29.8,477,502,26,1016.23,31.5,151
"2019-01-28 18:37:07+00",16.0,18.0,,30.3,568,414,51,1016.09,31.9,163.3
"2019-01-28 18:42:07+00",17.1,19.1,,29.8,592,435,48,1015.82,31.6,133
"2019-01-28 18:47:07+00",18.9,20.9,,29.8,736,415,42,1015.8,31.4,122.4
"2019-01-28 18:52:07+00",16.2,19.2,,29.7,620,367,63,1015.5,31.1,106
"2019-01-28 18:57:07+00",14.4,16.4,,29.9,437,426,49,1015.48,31.1,96.4
"2019-01-28 19:02:07+00",18.3,20.3,,29.6,588,520,5,1015.27,31,101
"2019-01-28 19:07:07+00",17.4,20.4,,29.5,587,468,29,1015.24,31,122.5
"2019-01-28 19:12:07+00",17.2,19.2,,29.8,627,428,45,1015.22,31,128.2
"2019-01-28 19:17:07+00",16.7,17.7,,29.7,572,450,19,1015.34,31.2,115.9
"2019-01-28 19:22:07+00",14.6,16.6,,29.9,518,375,39,1015.64,31.2,121.6
"2019-01-28 19:27:07+00",17.6,19.6,,29.7,593,479,6,1015.47,31.3,167
"2019-01-28 19:32:07+00",14.5,17.5,,29.8,502,370,34,1015.58,31.3,111.8
"2019-01-28 19:37:07+00",15.9,19.9,,29.8,589,383,40,1015.54,31.2,119.2
"2019-01-28 19:42:07+00",15.7,16.7,,29.8,541,412,28,1015.52,31.3,105.2
"2019-01-28 19:47:07+00",17.1,19.1,,29.7,613,433,15,1015.43,31.2,103
"2019-01-28 19:52:07+00",18.4,21.4,,29.6,704,419,24,1015.45,31.1,84.8
"2019-01-28 19:57:07+00",15.0,19.0,,29.7,579,324,72,1015.54,31,79.2
"2019-01-28 20:02:07+00",14.3,17.3,,29.5,559,294,65,1015.66,30.7,78
"2019-01-28 20:07:07+00",14.1,16.1,,29.7,533,319,25,1015.67,30.9,79.9
"2019-01-28 20:12:07+00",16.5,19.5,,29.5,558,448,27,1015.84,30.8,84.1
"2019-01-28 20:17:07+00",14.9,17.9,,29.4,590,295,28,1015.52,30.7,88.5
"2019-01-28 20:22:07+00",15.5,17.5,,29.5,588,357,21,1015.65,30.7,102.4
"2019-01-28 20:27:07+00",14.8,16.8,,29.8,591,291,35,1015.65,30.8,131.7
"2019-01-28 20:32:07+00",12.3,14.3,,30,477,254,66,1015.66,31.4,186.2
"2019-01-28 20:37:07+00",14.2,16.2,,30.1,534,327,42,1015.52,31.6,117.2
"2019-01-28 20:42:07+00",13.2,15.2,,30,526,259,34,1015.55,31.3,88.7
"2019-01-28 20:47:07+00",13.8,15.8,,29.8,585,236,13,1015.63,31.1,122.8
"2019-01-28 20:52:07+00",14.4,15.4,,30,563,297,23,1015.73,31.5,149.7
"2019-01-28 20:57:07+00",13.7,15.7,,30.2,520,311,26,1015.5,31.8,122.2
"2019-01-28 21:02:07+00",11.5,15.5,,30.1,472,204,36,1015.56,31.5,101
"2019-01-28 21:07:07+00",12.7,14.7,,30.1,456,312,18,1015.49,31.5,77.9
"2019-01-28 21:12:07+00",15.0,17.0,,30,580,322,20,1015.51,31.3,63.6
"2019-01-28 21:17:07+00",13.1,14.1,,30.1,493,301,25,1015.63,31.1,70.6
"2019-01-28 21:22:07+00",12.7,14.7,,30.1,473,297,23,1015.66,31,28.5
"2019-01-28 21:27:07+00",10.9,12.9,,30,454,180,34,1015.93,30.6,19.9
"2019-01-28 21:32:07+00",10.9,12.9,,29.8,396,261,30,1016.04,30.3,9.3
"2019-01-28 21:37:07+00",10.2,11.2,,29.7,406,199,26,1016.03,30,1.1
"2019-01-28 21:42:07+00",11.2,12.2,,29.8,412,263,24,1015.94,29.8,17.3
"2019-01-28 21:47:07+00",12.3,13.3,,29.8,440,309,22,1015.75,29.8,5
"2019-01-28 21:52:07+00",11.1,13.1,,29.7,399,276,23,1015.78,29.7,0
"2019-01-28 21:57:07+00",11.6,14.6,,29.5,418,282,32,1015.91,29.4,0
"2019-01-28 22:02:07+00",10.3,11.3,,29.6,382,243,26,1015.91,29.3,0
"2019-01-28 22:07:07+00",10.9,12.9,,29.5,417,238,21,1015.94,29.1,0
"2019-01-28 22:12:07+00",10.6,11.6,,29.4,385,260,21,1015.84,29,0
"2019-01-28 22:17:07+00",8.6,10.6,,29.2,323,193,25,1015.83,28.7,0
"2019-01-28 22:22:07+00",11.9,12.9,,29.3,452,268,19,1015.77,28.5,0
"2019-01-28 22:27:07+00",8.9,9.9,,29.1,333,202,25,1015.77,28.4,0
"2019-01-28 22:32:07+00",11.7,13.7,,29.1,431,279,21,1015.75,28.2,0
"2019-01-28 22:37:07+00",10.8,11.8,,29.1,402,249,28,1015.75,28.2,0
"2019-01-28 22:42:07+00",11.9,13.9,,29.1,426,297,26,1015.68,28.1,0
"2019-01-28 22:47:07+00",10.4,11.4,,29.2,373,263,25,1015.59,28.3,0
"2019-01-28 22:52:07+00",11.4,13.4,,29.2,416,279,26,1015.7,28.4,0
"2019-01-28 22:57:07+00",8.4,9.4,,29.2,295,207,25,1015.57,28.3,0
"2019-01-28 23:02:07+00",11.1,13.1,,29.3,356,306,20,1015.44,28.3,0
"2019-01-28 23:07:07+00",8.5,9.5,,29,264,238,21,1015.55,28.2,0
"2019-01-28 23:12:07+00",10.7,12.7,,29.1,363,287,17,1015.44,28.2,0
"2019-01-28 23:17:07+00",11.0,13.0,,29.2,335,311,12,1015.34,28.3,0
"2019-01-28 23:22:07+00",10.3,11.3,,29.1,349,272,17,1015.32,28.3,0
"2019-01-28 23:27:07+00",10.6,13.6,,29.1,374,267,21,1015.32,28.2,0
"2019-01-28 23:32:07+00",10.3,12.3,,29.1,339,282,28,1015.18,28.2,0
"2019-01-28 23:37:07+00",10.8,11.8,,29.1,347,300,14,1015.08,28.3,0
"2019-01-28 23:42:07+00",12.7,15.7,,29.2,394,357,12,1014.92,28.3,0
"2019-01-28 23:47:07+00",9.6,12.6,,29.1,323,257,20,1015.08,28.3,0
"2019-01-28 23:52:07+00",10.1,12.1,,29,331,275,27,1015.22,28.2,0
"2019-01-28 23:57:07+00",10.1,12.1,,29,352,259,17,1015.14,28.1,0
